Погода в Тамбове

Поиск расширенной информации на нашем сайте:

Полезная информация:

Новости сайта



02.01.2020
Опубликован Долгосрочный прогноз погоды по городам России и ближнего зарубежья на январь 2020 года.
Карты: Прогноз на январь и февраль 2020 года, Сравнение прогнозируемой аномалии приземной температуры воздуха на январь 2020 года по разным моделям.




Погода в Тамбове - сегодня

Время (UTC), дата Ветер
(°,м/с) 
Видим.   Явления Облачность Т
(°С)
Тd
(°С)
f(%) Тe
(°С)
Pmin
(гПа)
dP
(гПа)
Po
(мм)
O2
(г/м3)
Тmin Tmax R s Состояние
почвы
06 05.04.20 310 (СЗ) 10 км    ясно 
+3.8 -4.2 56 +3  1023.3  0.6  755  301  -4.2         
09 05.04.20 280 (З) 7-10{10}  10 км    8/8 1000 м 
[Cu hum]
+8.4 -7.4 32 +6  1022.3  -0.8  754  296           
12 05.04.20 нст () 2{12}  10 км    8/8 1000 м 
[Cu Sc]
+9 -6.7 32 +9  1020.3  -1.9  753  294           
15 05.04.20 310 (СЗ) 9-14{15}  10 км  {ливн. осадки}  9/6 1000 м кучево-дожд., средняя 
[Cb calv|Ac trans]
+3.1 -1.4 72 -1  1021.2  0.6  753  300    +9.6  0.0     
18 05.04.20 310 (СЗ) 5{14}  10 км  {ливн. осадки}  8/4 1000 м средняя 
[Sc|Ac trans]
+0.1 -2.3 84 -3  1023.1  1.6  755  304           
21 05.04.20 300 (СЗ) 5{10}  10 км    4/0 средняя 
[Ac trans]
-1.1 -4.7 76 -4  1023.5  0.4  755  306           
00 06.04.20 310 (СЗ) 10 км    ясно 
-2.7 -6.4 76 -6  1024.4  0.8  756  308           
03 06.04.20 330 (СЗ) 10 км    ясно 
-4.4 -8.3 74 -6  1026  1.4  757  311  -5.1    0.0    замёрзшая 
06 06.04.20 320 (СЗ) 9-13{13}  10 км    ясно 
+1.4 -7.8 50 -3  1026.5  0.9  757  304           
09 06.04.20 320 (СЗ) 10-15{16}  10 км    8/8 1320 м 
[Cu med, cong]
+3.2 -9.6 38 -1  1027.2  0.8  758  303           
12 06.04.20 210 (ЮЗ) 10-15{18}  10 км    8/6 1200 м кучево-дожд., средняя 
[Cb calv|Ac trans]
+5 -12.3 27 +1  1027.3  0.2  758  301           
15 06.04.20 340 (С) 7-13{17}  10 км    8/6 1380 м кучево-дожд., средняя 
[Cb calv|Ac trans]
+2.8 -12.1 32 -1  1028.8  1.4  759  304    +5.3       
18 06.04.20 310 (СЗ) 4{13}  10 км    4/0 верхняя 
[Ci fib]
-2.4 -12.7 45 -5  1031  1.8  760  310           
21 06.04.20 350 (С) 10 км    5/0 верхняя 
[Ci fib]
-2.9 -12 49 -4  1032  761  311           
00 07.04.20 330 (СЗ) 10 км    ясно 
-6.5 -13.1 59 -8  1033.7  1.4  762  316           
03 07.04.20 320 (СЗ) 10 км    ясно 
-7.3 -12.2 68 -9  1035.6  1.7  764  317  -7.7        замёрзшая 
06 07.04.20 330 (СЗ) 10 км    ясно 
+1 -8.7 48 -1  1036.6  1.6  765  308           
09 07.04.20 330 (СЗ) 10 км    ясно 
+4.9 -13.2 26 +3  1035.3  -1  764  304           
12 07.04.20 260 (З) 7{10}  10 км    ясно 
+7 -13.3 22 +5  1033.4  -1.8  763  301           
15 07.04.20 270 (З) 5{11}  10 км    3/0 верхняя 
[Ci sp]
+6.4 -15.1 20 +5  1031.9  -1.6  761  301    +7.4       
18 07.04.20 190 (Ю) 10 км    9/0 средняя 
[Ac trans]
+0.8 -13.9 32 1030.6  -1.5  760  307           
21 07.04.20 140 (ЮВ) 10 км    6/0 средняя 
[Ac trans]
-0.1 -11.7 41 -2  1029.1  -1.5  759  307           
00 08.04.20 160 (Ю) 10 км    10/0 средняя 
[Ac und]
+4 -9.7 36 +4  1026.6  -2.3  757  302           
03 08.04.20 210 (ЮЗ) 10 км    9/0 средняя, верхняя 
[Ac trans|Ci sp]
+5.7 -4.5 48 +4  1023  -3.4  755  298  -0.8        сухая 
06 08.04.20 220 (ЮЗ) 9-14{14}  10 км    6/0 верхняя 
[Ci fib]
+11 -3 37 +9  1019.1  -3.6  752  292           
Время (UTC), дата Ветер
(°,м/с) 
Видим.   Явления Облачность Т
(°С)
Тd
(°С)
f(%) Тe
(°С)
Pmin
(гПа)
dP
(гПа)
Po
(мм)
O2
(г/м3)
Тmin Tmax R s Состояние
почвы

Для получения пояснительной информации подведите курсор к названию столбца.

ПОГОДА в Тамбове - архив

Всё, что Вы хотите узнать о погоде в Тамбове - удобно и подробно!

Выберите нужную дату (начиная с 1 января 2019* года) и нажмите кнопку "Найти".
Будут отображены архивные сводки погоды по пункту Тамбов, начиная с указанной даты.


Отображать данные в формате CSV (для использования в таблицах Excel)


Внимание! Наш архив погоды предназначен исключительно для личного некоммерческого использования в познавательных целях. Если Вам необходимы официальные справки о состоянии погоды (для производственных, юридических, коммерческих и т.п. целей), обращайтесь в органы Росгидромета.

*Примечание: данная дата относится к архиву по метеостанциям СССР (Россия, СНГ, Балтия).
Архив по метеостанциям Зарубежной Европы и Азии (кроме Китая) хранится 10 дней, по другим регионам земного шара (Китай, Африка, Америка, Австралия, Океания) - 1 день.

Тамбов - район местоположения метеостанции


Название, широта, долгота, высота метеостанции:
Тамбов 52.8°ш. 41.3°д. 128 м над ур. моря [Российская Федерация]

Дополнительная информация

В oтличие oт бoльшинства пoгoдных сайтoв мы публикуем пoдрoбную метеoинфoрмацию в детальнoм прoфессиoнальнoм фoрмате.

Характеристики температуры и влажнoсти вoздуха измеряются на высoте 2 м в тени вдали oт зданий и деревьев.
Скoрoсть ветра измеряется на высoте 10 м (на урoвне рoста челoвека скoрoсть ветра ниже в 1.5-2 раза). Если метеoстанция нахoдится в гoрoде или в лесу, тo скoрoсть ветра занижена на 2-4 м/с пo сравнению с oткрытым местoм. Скoрoсть ветра над акватoриями крупных рек и oзёр, а также на вершинах хoлмoв на 2-5 м/с выше, чем в oбычных услoвиях.
Атмoсфернoе давление в разных тoчках местнoсти мoжет значительнo oтличаться oт давления на метеoстанции, в зависимoсти oт услoвий рельефа (при пoдъёме на 10 м давление пoнижается примернo на 1 мм рт.ст.).